#timestamp,LO_Frequency,Hit,StdDev 
1610424015.9,286047050.8,N
1610424035.7,286047050.1,N
1610424055.5,286047050.7,N
1610424075.4,286047054.8,N
1610424095.2,286047058.5,N
1610424115.0,286047064.2,N
1610424115.9,286047064.2,N
1610424135.8,286047070.5,N
1610424155.6,286047074.4,N
1610424175.5,286047073.0,Y
1610424195.3,286047039.5,P
1610424215.1,286047037.6,P
1610424235.9,286047028.6,P
1610424255.7,286047028.8,Y
1610424275.5,286046990.8,P
1610424295.4,286046980.3,N
1610424315.2,286046990.0,N
1610424335.1,286046972.7,N
1610424336.0,286046972.7,N
1610424355.8,286046959.3,N
1610424375.6,286046950.7,N
1610424395.5,286046951.1,N
1610424415.3,286046950.5,N
1610424435.1,286046950.8,N
1610424455.9,286046951.5,N
1610424475.7,286046947.1,N
1610424495.6,286046936.4,N
1610424515.4,286046934.9,N
1610424535.2,286046926.6,N
1610424555.1,286046932.9,N
1610424556.0,286046932.9,N
1610424575.8,286046937.0,N
1610424595.6,286046936.0,N
1610424615.5,286046936.0,N
1610424635.3,286046929.3,N
1610424655.2,286046933.9,N
1610424675.0,286046930.3,N
1610424675.9,286046930.3,N
1610424695.8,286046923.5,Y
1610424715.6,286046978.2,P
1610424735.4,286046981.4,N
1610424755.3,286046983.4,N
1610424775.1,286046982.0,N
1610424795.8,286046978.6,N
1610424815.7,286046993.5,N
1610424835.5,286047006.2,N
1610424855.4,286047013.4,N
1610424875.2,286047012.9,N
1610424895.0,286047009.0,N
1610424895.9,286047009.0,N
1610424915.8,286047010.8,N
1610424935.6,286047006.1,N
1610424955.4,286047008.0,N
1610424975.3,286047014.1,N
1610424995.1,286047013.2,N
1610425015.9,286047019.4,N
1610425035.7,286047018.9,N
1610425055.5,286047013.2,N
1610425075.4,286047008.2,N
1610425095.2,286047022.8,N
1610425115.0,286047034.2,N
1610425115.9,286047034.2,N
1610425135.8,286047035.4,N
1610425155.6,286047038.7,N
1610425175.5,286047039.0,N
1610425195.3,286047042.9,N
1610425215.1,286047046.7,N
1610425235.9,286047051.1,N
1610425255.7,286047044.0,N
1610425275.6,286047046.2,N
1610425295.4,286047054.0,N
1610425315.2,286047055.5,N
1610425335.1,286047058.2,N
1610425336.0,286047058.2,N
1610425355.8,286047061.4,Y
1610425375.6,286047036.0,P
1610425395.5,286047028.3,P
1610425415.3,286047018.0,P
1610425435.2,286047013.6,N
1610425455.9,286047024.9,Y
1610425475.7,286047004.1,P
1610425495.6,286047010.1,N
1610425515.4,286047008.1,N
1610425535.2,286047003.8,N
1610425555.1,286047004.3,N
1610425556.0,286047004.3,N
1610425575.8,286047001.2,N
1610425595.7,286047000.5,N
1610425615.5,286047008.8,N
1610425635.3,286047008.0,N
1610425655.2,286047008.2,N
1610425675.0,286047001.6,N
1610425675.9,286047001.6,N
1610425695.8,286046998.2,N
1610425715.6,286046996.5,N
1610425735.4,286046994.8,N
1610425755.3,286046999.8,N
1610425775.1,286046993.4,N
1610425795.8,286046992.9,N
1610425815.7,286046993.5,N
1610425835.5,286047006.9,N
1610425855.4,286047009.4,N
1610425875.2,286047007.8,N
1610425895.0,286046999.1,N
1610425895.9,286046999.1,N
1610425915.8,286046990.4,N
1610425935.6,286046997.3,N
1610425955.4,286046995.0,N
1610425975.3,286046998.3,N
1610425995.1,286047010.6,N
1610426015.9,286047018.5,Y
1610426035.7,286047011.7,P
1610426055.5,286047016.2,P
1610426075.4,286047008.1,N
1610426095.2,286047004.7,N
1610426115.1,286047000.7,N
1610426116.0,286047000.7,N
1610426135.8,286047001.3,N
1610426155.6,286047002.7,N
1610426175.5,286047012.4,N
1610426195.3,286047014.3,N
1610426215.2,286047020.3,Y
1610426235.9,286047013.0,P
1610426255.7,286047018.2,P
1610426275.6,286047016.8,P
1610426295.4,286047013.0,N
1610426315.3,286047007.7,N
1610426335.1,286047004.6,N
1610426336.0,286047004.6,N
1610426355.8,286047011.4,N
1610426375.7,286047015.2,Y
1610426395.5,286047005.2,P
1610426415.4,286047002.9,N
1610426435.2,286047003.8,N
1610426455.0,286047009.2,Y
1610426455.9,286047009.2,P
1610426475.8,286047006.8,P
1610426495.6,286047005.1,P
1610426515.4,286047001.1,N
1610426535.3,286046994.1,N
1610426555.1,286046993.2,N
1610426575.9,286046984.6,N
1610426595.7,286046988.1,N
1610426615.5,286046989.5,N
1610426635.4,286046985.5,N
1610426655.2,286046982.4,N
1610426675.0,286046979.5,N
1610426675.9,286046979.5,N
1610426695.8,286046973.0,N
1610426715.6,286046974.3,N
1610426735.5,286046970.1,N
1610426755.3,286046964.0,N
1610426775.1,286046959.3,Y
1610426825.9,286046984.0,E
1610426835.8,286046997.1,N
1610426855.7,286047014.6,P
1610426875.5,286047014.7,N
1610426895.3,286047012.1,N
1610426915.2,286047009.1,N
1610426935.0,286046996.0,N
1610426935.9,286046996.0,N
1610426955.8,286046988.6,N
1610426975.6,286046991.9,N
1610426995.4,286047000.4,N
1610427015.3,286047005.6,N
1610427035.1,286047002.8,N
1610427055.8,286047000.6,N
1610427075.7,286047003.6,N
1610427095.5,286047000.0,N
1610427115.3,286046993.6,N
1610427135.2,286046997.4,N
1610427155.0,286047000.0,N
1610427155.9,286047000.0,N
1610427175.8,286047000.4,N
1610427195.6,286047008.6,N
1610427215.4,286047007.5,N
1610427235.3,286047008.4,N
1610427255.1,286047018.7,N
1610427275.9,286047025.6,Y
1610427295.7,286047029.9,P
1610427315.5,286047029.5,N
1610427335.4,286047032.4,N
1610427355.2,286047026.5,N
1610427375.1,286047032.8,Y
1610427376.0,286047032.8,P
1610427395.8,286047007.4,N
1610427415.6,286047010.1,N
1610427435.5,286047020.3,N
1610427455.3,286047015.9,N
1610427475.2,286047014.1,N
1610427495.9,286047013.0,N
1610427515.7,286047011.5,N
1610427535.6,286047017.2,N
1610427555.4,286047017.4,N
1610427575.2,286047019.8,N
1610427595.1,286047021.0,Y
1610427596.0,286047021.0,P
